sat.trackr.live / text

‹ back to catalog

STARLINK-32773

NORAD 62571 · 2025-006T

PAYLOAD ACTIVE UNKNOWN

§ Identity

Operator
Country
US
Launch date
2025-01-10
Launch site
AFETR
Launch vehicle
Mass (kg)
RCS (m²)

Purposes: comms

External: N2YO · Heavens-Above · Gunter

§ Orbital elements

Epoch: 2026-09-21T10:50:22.902144Z

Period
94.27 min
Inclination
43.0015°
Eccentricity
0.0001168
Mean motion
15.27585710 rev/d
Perigee alt
482.2 km
Apogee alt
483.8 km
Semi-major
6,861.2 km
B*
2.8205e-4
RAAN
266.8642°
Arg perigee
274.0950°
Mean anomaly
85.9769°
Rev number
9,480

§ Raw data

STARLINK-327731 62571U 25006T   26264.45165396  .00007509  00000+0  28205-3 0  99932 62571  43.0015 266.8642 0001168 274.0950  85.9769 15.27585710 94809

JSON: /api/v1/satellites/62571 · /tle

For live sub-satellite position, see the globe view (requires WebGL).

§ Visibility from observer

Set your observer location to see the next 7 days of passes ≥ 10°. The values pass through the URL so the page stays shareable.

No JS? Fill the form by hand. The geolocation button needs JavaScript.